DECAYED

STARLINK-32823, 62823 (Decayed)

Orbit data source: Space-Track

STARLINK-32823, 62823 was a payload satellite owned by SpaceX/Seattle (US) in LEO that was launched on Fri, 24 Jan 2025 UTC via an FALCON 9 launch vehicle from the Air Force Western Test Range (AFWTR). Payload-class satellites include a variety of spacecraft equipped with specific instruments for various scientific and technological missions. These include communications satellites like Starlink; space stations such as the ISS; scientific satellites like the Hubble; Earth observation satellites from companies like Planet Labs, Umbra, and HawkEye 360; GPS; miniature CubeSats for education and research; and military/defense satellites.

Not visible in the next 10 days
Identifier
62823, 2025-018T
Orbit
Decayed
Country
Flag of USUS
Related business
Manufacturer
SpaceX/Seattle
Mission
Decayed Commercial Communications
Bus & Motor
STARLINK V2M, Unknown motor
Mass
730 kg wet, ~700 kg dry
Launch date (UTC)
2025-01-24 (1 year ago)
Launch vehicle
FALCON 9
Launch site
Air Force Western Test Range (AFWTR)
Object type
Payload
Rocket body
Debris
Shape & HBR
Box + 2 Pan, 17.7 m
Radar Cross Section
33.884 m², Large (>1 m²)

Expand to show TLE details & history
Last TLE update: 1 month ago

TLE from 1 month ago
0 STARLINK-32823
1 62823U 25018T   26142.68844907  .12619469  12158-4  22000-2 0  9993
2 62823  53.1496 317.5028 0017518 277.2635  82.6418 16.31554391 74627
Epoch: 2026-05-22T16:31Z
TLE epoch observation values (Epoch: 2026-05-22T16:31:21.999Z)
Latitude
-0.00003°
Longitude
-170.65459°
Altitude
187.85 km
Speed
7.796 km/s
True Right ascension
21h 10m 00s
True Declination
0° 00' 00"
Sunlit
Object was in daylight at epoch
Visualization orbit readout
Latitude
Unknown
Longitude
Unknown
Altitude
Unknown
Speed
Unknown
Apparent Right ascension
Unknown
Apparent Declination
Unknown
Sunlit
N/A
Visualization observer readout
Local Sidereal Time
13:35:35
Azimuth
Unknown
Elevation
Unknown
Doppler factor
Unknown
Orbital elements
Apogee altitude
200.139 km
Perigee altitude
177.131 km
Semi-major axis
6,566.772 km
Eccentricity
0.00175
Inclination
53.1496°
RAAN
317.5028°
Arg. of periapsis
277.2635°
True anomaly
82.84094°
Mean anomaly
82.6418°
Eccentric anomaly
82.74137°
Mean motion
4.07864 °/min
Orbital period
88.26 mins
BSTAR
0.0022
Loading maneuver chart data...
Computing Atmospheric mass density...
Loading historical data...
Loading historical data...
Loading historical data...
Loading historical data...
Loading historical data...
Loading historical data...
Loading historical data...

Documentation

Showing up to 5 results
|